Location: Fontevrault
(47.1823°N, 0.0493°E)
Time: 09:20:42
(UTC+00:00)

Cosmos 1953 - Pass Details

Date: 16 June 2021
Orbit: 537 x 557 km, 82.5° (Epoch: 03 August)

Event Time Altitude Azimuth Distance (km) Brightness Sun altitude
Rises 21:05:38 0° 354° (N) 2,754 6.9 -9.2°
Reaches altitude 10° 21:07:51 10° 359° (N) 1,854 5.9 -9.4°
Maximum altitude 21:11:52 57° 78° (ENE) 664 2.6 -9.9°
Enters shadow 21:15:19 14° 156° (SSE) 1,619 4.1 -10.2°
